Location: Newark
(32.7036°S, 144.7033°W)
Time: 07:48:34
(UTC+00:00)

Hubble Space Telescope - Visible Passes

Search period start: 22 November 2019 00:00
Search period end: 02 December 2019 00:00
Orbit: 536 x 540 km, 28.5° (Epoch: 21 November)

Date Brightness Start Highest point End Pass type
(mag) Time Alt. Az. Time Alt. Az. Time Alt. Az.
22 Nov 2.7 13:28:12 11° NNW 13:30:49 17° NNE 13:33:38 10° ENE visible
23 Nov 2.5 13:18:05 15° NNW 13:20:09 21° NNE 13:23:19 10° ENE visible
24 Nov 2.2 13:07:55 20° NNW 13:09:29 25° NNE 13:12:55 10° ENE visible
25 Nov 1.9 12:57:45 25° NNW 12:58:49 29° NNE 13:02:27 10° ENE visible
26 Nov 1.6 12:47:35 31° N 12:48:10 33° NNE 12:51:57 10° ENE visible
27 Nov 1.4 12:37:26 37° N 12:37:32 37° N 12:41:24 10° ENE visible
28 Nov 1.4 12:27:17 40° NNE 12:27:17 40° NNE 12:30:50 10° ENE visible
29 Nov 1.6 12:17:12 37° NE 12:17:12 37° NE 12:20:16 10° ENE visible
29 Nov 1.3 13:53:17 10° WNW 13:57:14 42° N 14:01:11 10° ENE visible
30 Nov 2.1 12:07:11 31° NE 12:07:11 31° NE 12:09:40 10° ENE visible
30 Nov 1.4 13:42:42 10° WNW 13:46:37 38° N 13:50:29 10° ENE visible
01 Dec 2.5 11:57:16 23° ENE 11:57:16 23° ENE 11:59:03 10° ENE visible
01 Dec 1.5 13:32:37 13° WNW 13:35:58 34° NNW 13:39:46 10° NE visible
